Location: Charlottesville
(38.0290°N, 78.4770°W)
Time: 06:14:51
(UTC-04:00)

Vanguard 3 - Visible Passes

Search period start: 22 October 2017 00:00
Search period end: 01 November 2017 00:00
Orbit: 510 x 3263 km, 33.3° (Epoch: 21 October)

Date Brightness Start Highest point End Pass type
(mag) Time Alt. Az. Time Alt. Az. Time Alt. Az.
22 Oct 9.9 03:37:23 40° SSE 03:37:23 40° SSE 03:47:40 10° E visible
22 Oct 9.0 05:41:59 23° WSW 05:51:23 62° S 05:59:33 10° E visible
23 Oct 10.6 02:27:52 24° ESE 02:27:52 24° ESE 02:33:05 10° E visible
23 Oct 9.4 04:32:28 45° SSW 04:36:26 55° SSE 04:46:15 10° E visible
23 Oct 8.7 06:37:03 10° W 06:50:12 67° S 06:57:25 10° E visible
24 Oct 9.9 03:22:53 44° SE 03:22:53 44° SE 03:32:28 10° E visible
24 Oct 9.1 05:27:28 31° WSW 05:35:32 66° S 05:44:24 10° E visible
25 Oct 10.7 02:13:16 24° ESE 02:13:16 24° ESE 02:17:54 10° E visible
25 Oct 9.4 04:17:51 55° SSW 04:20:19 60° SSE 04:31:01 10° E visible
25 Oct 8.9 06:22:26 16° W 06:34:27 69° S 06:42:19 10° ESE visible
26 Oct 10.0 03:08:11 45° SE 03:08:11 45° SE 03:17:08 10° E visible
26 Oct 9.2 05:12:46 39° WSW 05:19:34 70° S 05:29:12 10° E visible
27 Oct 10.8 01:58:29 22° E 01:58:29 22° E 02:02:31 10° E visible
27 Oct 9.5 04:03:04 64° S 04:04:06 65° SSE 04:15:41 10° E visible
27 Oct 9.0 06:07:38 21° W 06:18:37 70° S 06:27:09 10° ESE visible
28 Oct 10.1 02:53:21 44° ESE 02:53:21 44° ESE 03:01:40 10° E visible
28 Oct 9.2 04:57:55 47° WSW 05:03:29 72° S 05:13:56 10° E visible
28 Oct 9.0 07:03:45 10° W 07:17:15 58° SSW 07:24:47 10° ESE visible
29 Oct 10.9 01:43:36 20° E 01:43:36 20° E 01:46:57 10° E visible
29 Oct 9.5 03:48:10 68° SSE 03:48:10 68° SSE 04:00:17 10° E visible
29 Oct 9.1 05:52:45 27° W 06:02:39 70° S 06:11:56 10° ESE visible
30 Oct 10.2 02:38:25 41° ESE 02:38:25 41° ESE 02:46:05 10° E visible
30 Oct 9.3 04:42:59 56° WSW 04:47:19 74° S 04:58:36 10° E visible
30 Oct 9.1 06:47:33 11° W 07:01:21 56° SSW 07:09:32 10° SE visible
31 Oct 11.0 01:28:39 18° E 01:28:39 18° E 01:31:13 10° E visible
31 Oct 9.6 03:33:13 67° SE 03:33:13 67° SE 03:44:46 10° E visible
31 Oct 9.3 05:37:47 33° W 05:46:35 69° SSW 05:56:37 10° ESE visible
